Regional Weather Roundup
Issued by NWS Charleston, SC

Current Version | Previous Version | Text Only | Print | Product List | Glossary Off
Versions: 1 2 3 4 5 6 7 8 9 10 11 12 13 14 15 16 17 18 19 20 21 22 23 24 25 26 27 28 29 30 31 32 33 34 35 36 37 38 39 40 41 42 43 44 45 46 47 48 49 50
000 ASUS42 KCHS 231127 RWRCHS REGIONAL WEATHER ROUNDUP NATIONAL WEATHER SERVICE CHARLESTON SC 600 AM EST MON JAN 23 2017 NOTE: "FAIR" INDICATES FEW OR NO CLOUDS BELOW 12,000 FEET WITH NO SIGNIFICANT WEATHER AND/OR OBSTRUCTIONS TO VISIBILITY. NOT ALL STATIONS ARE QUALITY CONTROLLED. USE DATA WITH CAUTION... ESPECIALLY DEWPOINT OBSERVATIONS. SCZ027-030-031-034>040-042>050-231200- ...SOUTHEAST SOUTH CAROLINA... CITY SKY/WX TMP DP RH WIND PRES REMARKS N CHARLESTON PTCLDY 53 49 86 S12 29.29F WATERFRONT PRK N/A 56 53 90 S7 29.30S MOUNT PLEASANT FAIR 54 52 94 S8 29.31S JOHNS ISLAND FAIR 57 50 77 S10 29.31S PINOPOLIS N/A 52 50 93 VRB3 29.22S MONCKS CORNER FAIR 46 45 93 CALM 29.30R SUMMERVILLE FAIR N/A N/A N/A SE3 29.30R BEAUFORT MCAS CLEAR 54 49 83 SW12 29.29S BEAUFORT ARPT FAIR 54 48 82 SW7 29.30S HILTON HEAD IS NOT AVBL WALTERBORO SUNNY 50 48 93 SW7 29.30R ALLENDALE FAIR 50 50 100 VRB3 29.26S ...SOUTHERN MIDLANDS AND PEE DEE... CITY SKY/WX TMP DP RH WIND PRES REMARKS GEORGETOWN FAIR 46 46 100 CALM 29.32S KINGSTREE FAIR 46 45 93 SE6 29.29S ORANGEBURG CLEAR 50 48 93 S9 29.25F BARNWELL FAIR 52 50 93 S5 29.26R AIKEN FAIR 48 45 87 SW8 29.27R MANNING FAIR 46 36 66 CALM 29.28S COLUMBIA MOCLDY 50 47 89 E3 29.23S SUMTER CLEAR 47 45 93 CALM 29.24S FLORENCE CLEAR 51 49 92 S7 29.28R MYRTLE BEACH CLEAR 54 46 76 SW8 29.32S N MYRTLE BEACH CLEAR 52 48 86 SW6 29.30R $$ GAZ063-065-086>088-099>101-113>116-118-119-134>141-150-231200- ...SOUTHEAST GEORGIA... CITY SKY/WX TMP DP RH WIND PRES REMARKS SAVANNAH ARPT PTCLDY 52 47 83 S8 29.31S HUNTER AAF CLEAR 53 52 97 SW7 29.29R FORT STEWART PTCLDY 53 48 83 S7 29.29S STATESBORO CLOUDY 55 49 81 SW8 29.28S SYLVANIA PTSUNNY N/A N/A N/A SW8 29.28S CLAXTON FAIR N/A N/A N/A CALM 29.28S ...CSRA...CENTRAL AND FAR SOUTHEAST GEORGIA... CITY SKY/WX TMP DP RH WIND PRES REMARKS THOMSON CLOUDY 51 51 99 CALM 29.27S AUGUSTA-BUSH MOCLDY 53 47 79 SW7 29.24S AUGUSTA-DANIEL CLOUDY 52 45 77 SW5 29.24S SWAINSBORO LGT RAIN 52 46 82 SW7 29.26S VIDALIA CLOUDY 54 50 87 SW12 29.27F EASTMAN LGT RAIN 52 46 80 SW7 29.28S HAZLEHURST DRIZZLE 55 50 85 SW10G17 29.27F ALMA CLOUDY 52 48 86 S9 29.31F WAYCROSS CLEAR 55 55 100 SW12 29.33F JESUP FAIR 54 46 76 SW7 29.32S BAXLEY FAIR 54 52 94 SW12 29.30S BRUNSWICK CLEAR 55 52 88 SW10 29.35S SAINT SIMONS CLEAR 56 51 84 SW16 29.35S $$ SCZ027-028-034-036>038-045-046-048>050-GAZ119-141-231200- ...LAKE AND SUPPLEMENTAL COASTAL OBSERVATIONS... STATION/POSITION TIME TEMP WIND PRES WAVE SWELL AIR SEA DIR/SP/G HT/PER HT/PER/DIR (UTC) (F) (DEG/KT/KT) (MB) (FT/S) (FT/S/D) WINYAH BAY 1030 53 CALM 992.0S LAKE MURRAY 1030 52 210/ 5/ 7 989.5S ACE BASIN NERRS 1045 55 220/ 2 992.0S FORT PULASKI 1100 56 59 240/ 9/ 13 992.7 SAPELO ISLAND 1100 54 210/ 11 993.0 $$ ANZ835-935-AMZ111-154-330-350-352-354-370-450-454-472-231200- ...C-MAN AND BUOY OBSERVATIONS... STATION/POSITION TIME TEMP WIND PRES WAVE SWELL AIR SEA DIR/SP/G HT/PER HT/PER/DIR (UTC) (F) (DEG/KT/KT) (MB) (FT/S) (FT/S/D) BUOY 41004 1050 64 66 220/ 16/ 21 992.6S 9/10 7/180/10 BUOY 41008 1050 59 60 220/ 21/ 25 992.6F 5/ 7 2/130/ 9 FOLLY BEACH CMAN 1100 58 200/ 14/ 17 992.8F CAPERS NEARSHORE 1108 57 56 200/ 10/ 14 992.3F FRIPP NEARSHORE 1108 58 58 240/ 21/ 27 992.6R STATION/POSITION TIME TEMP WIND PRES WAVE SWELL AIR SEA DIR/SP/G HT/PER HT/PER/DIR (UTC) (F) (DEG/KT/KT) (MB) (FT/S) (FT/S/D) 5E ST. MARYS GA 1100 62 N/A 4/ 6 2/ 90/14 FRYING PAN BUOY 1110 62 69 240/ 21/ 25 993.4 BUOY 41025 1050 71 72 170/ 25/ 31 991.1F 10/ 6 3/ 30/13 CAPE LOOKOUT NC 1100 62 230/ 12/ 16 991.0R BUOY 41002 1050 67 71 210/ 23/ 31 997.2F 14/10 11/190/10 BUOY 41010 NOT AVBL ST AUGUSTINE FL 1100 58 65 240/ 7/ 10 996.7F $$

USA.gov is the U.S. government's official web portal to all federal, state and local government web resources and services.